{"data":{"norad_id":58952,"epoch":"2026-05-25T04:36:29.328768Z","epoch_age_seconds":48554,"freshness":"FRESH","line1":"1 58952U 24027X   26145.19200612  .00000348  00000+0  22968-4 0  9998","line2":"2 58952  53.1612 314.1001 0001249  89.6571 270.4574 15.31696805129040","mean_motion":15.31696805,"eccentricity":0.0001249,"inclination_deg":53.1612,"raan_deg":314.1001,"arg_perigee_deg":89.6571,"mean_anomaly_deg":270.4574,"bstar":2.2968e-5,"rev_number":12904,"period_min":94.013384065262,"perigee_km":469.89409344468,"apogee_km":471.60494529722,"semimajor_km":6848.8865193709,"source":"CELESTRAK","updated_at":"2026-05-25T13:38:18.792569Z"}}